Regional Weather Roundup
Issued by NWS

Home | Current Version | Previous Version | Text Only | Print | Product List | Glossary Off
Versions: 1 2 3 4 5 6 7 8 9 10 11 12 13 14 15 16 17 18 19 20 21 22 23 24 25 26 27 28 29 30 31 32 33 34 35 36 37 38 39 40 41 42 43 44 45 46 47 48 49 50

215
ASUS43 KLSX 220107
RWRMO

WEATHER SUMMARY FOR MISSOURI
NATIONAL WEATHER SERVICE SPRINGFIELD MO
800 PM CDT THU SEP 21 2017

NOTE: "FAIR" INDICATES FEW OR NO CLOUDS BELOW 12,000 FEET WITH NO
       SIGNIFICANT WEATHER AND/OR OBSTRUCTIONS TO VISIBILITY.
       CURRENT SKY AND/OR WEATHER CONDITIONS ARE NOT AVAILABLE FOR
       CHILLICOTHE AND FARMINGTON.

MOZ001>031-035>038-043-044-053-054-220200-
...NORTHERN AND WESTERN MISSOURI...

CITY           SKY/WX    TMP DP  RH WIND       PRES   REMARKS
KANSAS CTY INT PTCLDY    83  73  72 S14       29.85R
KANSAS C DTWN  CLEAR     88  73  61 S14       29.84R HX  95
LEE`S SUMMIT   CLEAR     84  73  69 S13       29.87S HX  90
ST JOSEPH      CLEAR     84  74  71 S12       29.82R HX  91
CHILLICOTHE      N/A     84  71  65 SE6       29.88R
KIRKSVILLE     CLEAR     77  68  73 S7        29.91S

$$
MOZ066>068-077>081-088>096-101>105-220200-
...SOUTHWEST MISSOURI...

CITY           SKY/WX    TMP DP  RH WIND       PRES   REMARKS
SPRINGFIELD    CLEAR     83  67  58 S10       29.94R
JOPLIN         CLEAR     81  72  74 S8        29.91R
BRANSON        PTCLDY    82  66  57 S7        29.99R

$$
MOZ032>034-039>042-045>050-055>058-069>072-220200-
...CENTRAL MISSOURI...

CITY           SKY/WX    TMP DP  RH WIND       PRES   REMARKS
COLUMBIA       CLEAR     83  70  64 SE6       29.94R
JEFFERSON CITY CLEAR     81  70  69 SE5       29.92R
ROLLA          CLEAR     80  67  64 SE7       29.98R
SEDALIA        CLEAR     82  72  71 SE8       29.91S
WARRENSBURG    CLEAR     79  70  73 SE6       29.88R
OSAGE BEACH    CLEAR     82  69  64 SE3       29.94S

$$
MOZ051-052-059>065-220200-
...EAST CENTRAL MISSOURI...

CITY           SKY/WX    TMP DP  RH WIND       PRES   REMARKS
ST LOUIS INTL  MOCLDY    85  68  56 SE10      29.96R
SPIRIT OF STL  CLOUDY    83  71  67 SE5       29.94R
ST CHARLES     CLOUDY    79  69  71 E7        29.94R

$$
MOZ072>076-082>087-097>100-106>115-220200-
...SOUTH CENTRAL AND SOUTHEAST MISSOURI...

CITY           SKY/WX    TMP DP  RH WIND       PRES   REMARKS
CAPE GIRARDEAU CLEAR     77  67  71 SE7       29.98R
FARMINGTON     CLEAR     81  68  64 SE6       30.00R
POPLAR BLUFF   CLEAR     78  71  79 CALM      29.96S
WEST PLAINS    CLEAR     83  67  58 S6        30.01R

$$



USA.gov is the U.S. government's official web portal to all federal, state and local government web resources and services.